443P/PanSTARRS-Christensen (2022)

Japanese version
Home page
Updated on September 11, 2022

---------------------------------------------------------------------

* Profile

Designation 443P/2022 E1
Discovery Date March 2, 2022
Magnitude 20.6 mag
Discoverer Eric J. Christensen (Mt. Lemmon)

* Pictures

* Orbital Elements

Epoch 2022 Aug. 9.0 TT = JDT 2459800.5
T 2022 Oct. 10.14358 TT                                 Rudenko
q   2.9561784            (2000.0)            P               Q
n   0.11749948     Peri.  145.10700     -0.24249278     +0.91525548
a   4.1283713      Node   108.94559     -0.94941104     -0.15567291
e   0.2839359      Incl.   19.88590     -0.19953931     -0.37158223
P   8.39
From 159 observations 2005 July 5-2022 July 28, mean residual 0".5.

* Magnitudes Graph

        m1 = 7.5 + 5 log d + 20.0 log r

---------------------------------------------------------------------

The orbital elements are published on M.P.E.C. 2022-O116.
The magnitudes graphs are made with Comet for Windows.

---------------------------------------------------------------------

Copyright(C) Seiichi Yoshida (comet@aerith.net). All rights reserved.